Regional Weather Roundup
Issued by NWS Little Rock, AR

Home | Current Version | Previous Version | Graphics & Text | Print | Product List | Glossary On
Versions: 1 2 3 4 5 6 7 8 9 10 11 12 13 14 15 16 17 18 19 20 21 22 23 24 25 26 27 28 29 30 31 32 33 34 35 36 37 38 39 40 41 42 43 44 45 46 47 48 49 50
000
ASUS44 KLZK 041205
RWRLZK

WEATHER ROUNDUP FOR ARKANSAS
NATIONAL WEATHER SERVICE LITTLE ROCK AR
700 AM CDT SAT JUL 04 2015

NOTE: "FAIR" INDICATES FEW OR NO CLOUDS BELOW 12,000 FEET WITH NO
SIGNIFICANT WEATHER AND/OR OBSTRUCTIONS TO VISIBILITY.

ARZ001-003-010-029-041300-
NORTHWEST ARKANSAS

CITY           SKY/WX    TMP DP  RH WIND       PRES   REMARKS
FAYETTEVILLE   FOG       65  65 100 CALM      29.99R VSB<1/4
6HR MIN TEMP:  63; 6HR MAX TEMP:  66;

FORT SMITH     CLOUDY    70  68  93 SE3       29.96R FOG
6HR MIN TEMP:  70; 6HR MAX TEMP:  72;

HARRISON       FOG       68  68 100 CALM      30.00R VSB<1/4
6HR MIN TEMP:  67; 6HR MAX TEMP:  69;

BENTONVILLE    CLOUDY    70  66  88 E3        30.00R
ROGERS         MOCLDY    69  68  96 E5        30.00R
6HR MIN TEMP:  67; 6HR MAX TEMP:  70;

SILOAM SPGS    CLOUDY    66  63  88 E3          N/A  VSB 1/4
6HR MIN TEMP:  64; 6HR MAX TEMP:  68;

HIGHFILL       FOG       69  69 100 CALM      29.99R VSB<1/4
6HR MIN TEMP:  65; 6HR MAX TEMP:  69;

SPRINGDALE     CLOUDY    66  66 100 CALM      30.01R FOG
$$

ARZ004-005-016-041300-
NORTH CENTRAL ARKANSAS

CITY           SKY/WX    TMP DP  RH WIND       PRES   REMARKS
BATESVILLE     CLOUDY    68  66  94 CALM      29.97R VSB 1/2
6HR MIN TEMP:  66; 6HR MAX TEMP:  70; 6HR PCP:  0.01;

FLIPPIN        MOSUNNY   68  66  94 CALM      29.96S
6HR MIN TEMP:  66; 6HR MAX TEMP:  70;

MTN HOME       CLOUDY    68  66  93 CALM      29.98R FOG
6HR MIN TEMP:  67; 6HR MAX TEMP:  69;

$$

ARZ040-041-041300-
WEST CENTRAL ARKANSAS

CITY           SKY/WX    TMP DP  RH WIND       PRES   REMARKS
MENA           CLOUDY    72  70  94 CALM      30.00R
MOUNT IDA      LGT RAIN  71  69  93 CALM      29.96R
6HR MIN TEMP:  71; 6HR MAX TEMP:  72; 6HR PCP:  1.84;

$$

ARZ009-017-025-026-028-041300-
NORTHEAST ARKANSAS

CITY           SKY/WX    TMP DP  RH WIND       PRES   REMARKS
JONESBORO      FOG       70  70 100 CALM      29.96R VSB 1/2
6HR MIN TEMP:  68; 6HR MAX TEMP:  71;

NEWPORT        CLOUDY    70  70 100 SW3       29.98R FOG
6HR MIN TEMP:  69; 6HR MAX TEMP:  71;

WALNUT RIDGE   CLOUDY    72  70  94 CALM      29.96R VSB 1
6HR MIN TEMP:  72; 6HR MAX TEMP:  72;

BLYTHEVILLE    CLOUDY    73  73 100 S3        29.97R
6HR MIN TEMP:  70; 6HR MAX TEMP:  74;

$$

ARZ022-023-033-042-044-041300-
CENTRAL ARKANSAS

CITY           SKY/WX    TMP DP  RH WIND       PRES   REMARKS
LITTLE ROCK    CLOUDY    72  67  84 CALM      29.97R
6HR MIN TEMP:  70; 6HR MAX TEMP:  72; 6HR PCP:  0.01;

N LITTLE ROCK    N/A     69  69 100 SW8       29.97R
6HR MIN TEMP:  68; 6HR MAX TEMP:  70;

JACKSONVILLE   CLOUDY    70  70  98 SW2       29.96R
6HR MIN TEMP:  68; 6HR MAX TEMP:  70; 6HR PCP:  0.01;

SEARCY         CLOUDY    69  68  96 W3        29.99R
6HR MIN TEMP:  69; 6HR MAX TEMP:  72;

HOT SPRINGS    LGT RAIN  70  68  93 VRB3      29.99S
6HR MIN TEMP:  69; 6HR MAX TEMP:  71; 6HR PCP:  0.27;

RUSSELLVILLE   CLOUDY    70  69  97 CALM      29.97R
6HR MIN TEMP:  69; 6HR MAX TEMP:  71;

CLINTON        CLOUDY    68  68 100 CALM      30.00R
$$

ARZ036-041300-
EAST ARKANSAS

CITY           SKY/WX    TMP DP  RH WIND       PRES   REMARKS
WEST MEMPHIS   CLOUDY    72  72 100 S3        29.96R
6HR MIN TEMP:  72; 6HR MAX TEMP:  73;

$$

ARZ050-053-066-070-073-041300-
SOUTHWEST ARKANSAS

CITY           SKY/WX    TMP DP  RH WIND       PRES   REMARKS
ARKADELPHIA    CLOUDY    70  70 100 CALM      29.99S FOG
6HR MIN TEMP:  70; 6HR MAX TEMP:  73; 6HR PCP:  0.41;

CAMDEN         HVY RAIN  68  66  94 MISG      30.01R VSB 3/4
TEXARKANA      CLOUDY    74  68  81 NW8       29.98R THUNDER
6HR MIN TEMP:  74; 6HR MAX TEMP:  79;

EL DORADO      CLOUDY    72  67  84 NE3       30.00R
6HR MIN TEMP:  71; 6HR MAX TEMP:  79;

DE QUEEN       TSTM      70  70 100 VRB3      29.95F FOG
6HR MIN TEMP:  70; 6HR MAX TEMP:  76; 6HR PCP:  1.40;

$$

ARZ056-057-069-041300-
SOUTHEAST ARKANSAS

CITY           SKY/WX    TMP DP  RH WIND       PRES   REMARKS
PINE BLUFF     HVY RAIN  71  69  93 SW13      29.99R FOG
6HR MIN TEMP:  71; 6HR MAX TEMP:  76; 6HR PCP:  0.40;

STUTTGART      CLOUDY    72  68  88 SW6       29.97R
6HR MIN TEMP:  70; 6HR MAX TEMP:  72;

MONTICELLO     RAIN      71  70  96 W6        30.00R FOG
6HR MIN TEMP:  70; 6HR MAX TEMP:  78; 6HR PCP:  1.26;


$$




USA.gov is the U.S. government's official web portal to all federal, state and local government web resources and services.